Location: Fayetteville
(35.0530°N, 78.8790°W)
Time: 00:17:51
(UTC-04:00)

ISS - Visible Passes

Search period start: 02 August 2015 00:00
Search period end: 12 August 2015 00:00
Orbit: 401 x 403 km, 51.6° (Epoch: 01 August)

Date Brightness Start Highest point End Pass type
(mag) Time Alt. Az. Time Alt. Az. Time Alt. Az.
02 Aug -2.7 04:42:22 41° SSE 04:42:22 41° SSE 04:44:39 10° SE visible
02 Aug -1.7 21:15:15 10° WSW 21:18:18 37° NW 21:21:22 10° NNE visible
03 Aug 0.1 22:00:55 10° NW 22:02:10 12° NNW 22:03:21 10° N visible
04 Aug -0.3 21:06:30 10° WNW 21:08:52 18° NNW 21:11:12 10° NNE visible
06 Aug 0.1 20:58:56 10° NW 20:59:33 10° NNW 21:00:07 10° NNW visible
